Location: Freiburg+im+Breisgau
(48.0359°N, 7.8195°E)
Time: 03:57:24
(UTC+01:00)

ISS - Pass Details

Date: 13 November 2017
Orbit: 402 x 407 km, 51.6° (Epoch: 21 November)

Event Time Altitude Azimuth Distance (km) Brightness Sun altitude
Exits shadow 06:35:13 14° 283° (WNW) 1,219 -2.1 -9.7°
Maximum altitude 06:37:46 47° 211° (SSW) 541 -3.3 -9.3°
Drops below altitude 10° 06:40:54 10° 136° (SE) 1,450 0.0 -8.8°
Sets 06:43:00 0° 131° (SE) 2,307 1.4 -8.5°
